Powrót do katalogu

STARLINK-31359

AktywnyŁącznośćVLEO
NORAD 58945·PAYLOAD·🇺🇸 United States

Wystrzelony Feb 10, 2024 z Vandenberg Space Force Base

Loading…

Następne Przeloty (najbliższe 24 godziny)

TLE

ŚwieżeSource: CelesTrak SupGP

Epoka: Sep 14, 2026, 22:21 UTC

1 58945C 24027Q   26257.93173611  .00015058  00000+0  44513-3 0  2574
2 58945  53.1589 109.8996 0001345  79.3299 279.9691 15.34364947    18

Śledź STARLINK-31359 w czasie rzeczywistym z AllMySat

Download on the App Store